Year,Month,Day,Hour,Minute,Value (Times are PST for temperature in C)
2012,07,29,00,00,15.00
2012,07,29,00,01,15.00
2012,07,29,00,02,15.00
2012,07,29,00,03,15.00
2012,07,29,00,04,15.00
2012,07,29,00,05,15.00
2012,07,29,00,06,15.00
2012,07,29,00,07,15.00
2012,07,29,00,08,15.00
2012,07,29,00,09,15.00
2012,07,29,00,10,15.00
2012,07,29,00,11,15.00
2012,07,29,00,12,15.00
2012,07,29,00,13,15.00
2012,07,29,00,14,15.00
2012,07,29,00,15,15.00
2012,07,29,00,16,15.00
2012,07,29,00,17,15.00
2012,07,29,00,18,15.00
2012,07,29,00,19,15.00
2012,07,29,00,20,15.00
2012,07,29,00,21,15.00
2012,07,29,00,22,14.90
2012,07,29,00,23,14.90
2012,07,29,00,24,14.80
2012,07,29,00,25,14.80
2012,07,29,00,26,14.80
2012,07,29,00,27,14.80
2012,07,29,00,28,14.70
2012,07,29,00,29,14.70
2012,07,29,00,30,14.70
2012,07,29,00,31,14.70
2012,07,29,00,32,14.70
2012,07,29,00,33,14.60
2012,07,29,00,34,14.60
2012,07,29,00,35,14.60
2012,07,29,00,36,14.50
2012,07,29,00,37,14.50
2012,07,29,00,38,14.50
2012,07,29,00,39,14.40
2012,07,29,00,40,14.40
2012,07,29,00,41,14.40
2012,07,29,00,42,14.40
2012,07,29,00,43,14.40
2012,07,29,00,44,14.40
2012,07,29,00,45,14.30
2012,07,29,00,46,14.30
2012,07,29,00,47,14.30
2012,07,29,00,48,14.30
2012,07,29,00,49,14.30
2012,07,29,00,50,14.30
2012,07,29,00,51,14.30
2012,07,29,00,52,14.30
2012,07,29,00,53,14.30
2012,07,29,00,54,14.30
2012,07,29,00,55,14.20
2012,07,29,00,56,14.20
2012,07,29,00,57,14.20
2012,07,29,00,58,14.20
2012,07,29,00,59,14.20
2012,07,29,01,00,14.20
2012,07,29,01,01,14.20
2012,07,29,01,02,14.10
2012,07,29,01,03,14.10
2012,07,29,01,04,14.10
2012,07,29,01,05,14.10
2012,07,29,01,06,14.10
2012,07,29,01,07,14.10
2012,07,29,01,08,14.10
2012,07,29,01,09,14.10
2012,07,29,01,10,14.00
2012,07,29,01,11,14.00
2012,07,29,01,12,14.00
2012,07,29,01,13,14.00
2012,07,29,01,14,13.90
2012,07,29,01,15,13.90
2012,07,29,01,16,13.90
2012,07,29,01,17,13.90
2012,07,29,01,18,13.90
2012,07,29,01,19,13.80
2012,07,29,01,20,13.80
2012,07,29,01,21,13.80
2012,07,29,01,22,13.80
2012,07,29,01,23,13.80
2012,07,29,01,24,13.80
2012,07,29,01,25,13.80
2012,07,29,01,26,13.80
2012,07,29,01,27,13.80
2012,07,29,01,28,13.70
2012,07,29,01,29,13.70
2012,07,29,01,30,13.70
2012,07,29,01,31,13.70
2012,07,29,01,32,13.70
2012,07,29,01,33,13.70
2012,07,29,01,34,13.70
2012,07,29,01,35,13.70
2012,07,29,01,36,13.70
2012,07,29,01,37,13.60
2012,07,29,01,38,13.60
2012,07,29,01,39,13.60
2012,07,29,01,40,13.60
2012,07,29,01,41,13.60
2012,07,29,01,42,13.60
2012,07,29,01,43,13.60
2012,07,29,01,44,13.60
2012,07,29,01,45,13.60
2012,07,29,01,46,13.60
2012,07,29,01,47,13.60
2012,07,29,01,48,13.60
2012,07,29,01,49,13.60
2012,07,29,01,50,13.60
2012,07,29,01,51,13.60
2012,07,29,01,52,13.60
2012,07,29,01,53,13.60
2012,07,29,01,54,13.50
2012,07,29,01,55,13.50
2012,07,29,01,56,13.50
2012,07,29,01,57,13.50
2012,07,29,01,58,13.50
2012,07,29,01,59,13.40
2012,07,29,02,00,13.40
2012,07,29,02,01,13.40
2012,07,29,02,02,13.40
2012,07,29,02,03,13.40
2012,07,29,02,04,13.40
2012,07,29,02,05,13.40
2012,07,29,02,06,13.40
2012,07,29,02,07,13.40
2012,07,29,02,08,13.40
2012,07,29,02,09,13.30
2012,07,29,02,10,13.30
2012,07,29,02,11,13.30
2012,07,29,02,12,13.30
2012,07,29,02,13,13.30
2012,07,29,02,14,13.30
2012,07,29,02,15,13.30
2012,07,29,02,16,13.30
2012,07,29,02,17,13.30
2012,07,29,02,18,13.30
2012,07,29,02,19,13.30
2012,07,29,02,20,13.30
2012,07,29,02,21,13.30
2012,07,29,02,22,13.20
2012,07,29,02,23,13.20
2012,07,29,02,24,13.20
2012,07,29,02,25,13.20
2012,07,29,02,26,13.20
2012,07,29,02,27,13.20
2012,07,29,02,28,13.20
2012,07,29,02,29,13.20
2012,07,29,02,30,13.20
2012,07,29,02,31,13.10
2012,07,29,02,32,13.10
2012,07,29,02,33,13.10
2012,07,29,02,34,13.10
2012,07,29,02,35,13.10
2012,07,29,02,36,13.10
2012,07,29,02,37,13.00
2012,07,29,02,38,13.00
2012,07,29,02,39,13.00
2012,07,29,02,40,13.00
2012,07,29,02,41,13.00
2012,07,29,02,42,13.00
2012,07,29,02,43,13.00
2012,07,29,02,44,13.00
2012,07,29,02,45,13.00
2012,07,29,02,46,13.00
2012,07,29,02,47,13.00
2012,07,29,02,48,13.00
2012,07,29,02,49,12.90
2012,07,29,02,50,12.90
2012,07,29,02,51,12.90
2012,07,29,02,52,12.90
2012,07,29,02,53,12.90
2012,07,29,02,54,12.90
2012,07,29,02,55,12.90
2012,07,29,02,56,12.90
2012,07,29,02,57,12.90
2012,07,29,02,58,12.90
2012,07,29,02,59,12.80
2012,07,29,03,00,12.80
2012,07,29,03,01,12.80
2012,07,29,03,02,12.80
2012,07,29,03,03,12.80
2012,07,29,03,04,12.80
2012,07,29,03,05,12.80
2012,07,29,03,06,12.80
2012,07,29,03,07,12.80
2012,07,29,03,08,12.70
2012,07,29,03,09,12.70
2012,07,29,03,10,12.70
2012,07,29,03,11,12.70
2012,07,29,03,12,12.70
2012,07,29,03,13,12.70
2012,07,29,03,14,12.60
2012,07,29,03,15,12.60
2012,07,29,03,16,12.60
2012,07,29,03,17,12.60
2012,07,29,03,18,12.60
2012,07,29,03,19,12.60
2012,07,29,03,20,12.60
2012,07,29,03,21,12.60
2012,07,29,03,22,12.50
2012,07,29,03,23,12.50
2012,07,29,03,24,12.50
2012,07,29,03,25,12.50
2012,07,29,03,26,12.50
2012,07,29,03,27,12.40
2012,07,29,03,28,12.40
2012,07,29,03,29,12.40
2012,07,29,03,30,12.40
2012,07,29,03,31,12.40
2012,07,29,03,32,12.40
2012,07,29,03,33,12.40
2012,07,29,03,34,12.40
2012,07,29,03,35,12.40
2012,07,29,03,36,12.40
2012,07,29,03,37,12.40
2012,07,29,03,38,12.40
2012,07,29,03,39,12.40
2012,07,29,03,40,12.40
2012,07,29,03,41,12.50
2012,07,29,03,42,12.50
2012,07,29,03,43,12.50
2012,07,29,03,44,12.50
2012,07,29,03,45,12.50
2012,07,29,03,46,12.50
2012,07,29,03,47,12.50
2012,07,29,03,48,12.50
2012,07,29,03,49,12.50
2012,07,29,03,50,12.50
2012,07,29,03,51,12.50
2012,07,29,03,52,12.50
2012,07,29,03,53,12.50
2012,07,29,03,54,12.50
2012,07,29,03,55,12.40
2012,07,29,03,56,12.40
2012,07,29,03,57,12.40
2012,07,29,03,58,12.40
2012,07,29,03,59,12.40
2012,07,29,04,00,12.40
2012,07,29,04,01,12.40
2012,07,29,04,02,12.40
2012,07,29,04,03,12.40
2012,07,29,04,04,12.40
2012,07,29,04,05,12.40
2012,07,29,04,06,12.40
2012,07,29,04,07,12.40
2012,07,29,04,08,12.30
2012,07,29,04,09,12.30
2012,07,29,04,10,12.30
2012,07,29,04,11,12.30
2012,07,29,04,12,12.30
2012,07,29,04,13,12.30
2012,07,29,04,14,12.30
2012,07,29,04,15,12.30
2012,07,29,04,16,12.30
2012,07,29,04,17,12.30
2012,07,29,04,18,12.30
2012,07,29,04,19,12.30
2012,07,29,04,20,12.30
2012,07,29,04,21,12.30
2012,07,29,04,22,12.30
2012,07,29,04,23,12.30
2012,07,29,04,24,12.30
2012,07,29,04,25,12.30
2012,07,29,04,26,12.30
2012,07,29,04,27,12.30
2012,07,29,04,28,12.30
2012,07,29,04,29,12.30
2012,07,29,04,30,12.30
2012,07,29,04,31,12.30
2012,07,29,04,32,12.30
2012,07,29,04,33,12.30
2012,07,29,04,34,12.30
2012,07,29,04,35,12.30
2012,07,29,04,36,12.20
2012,07,29,04,37,12.20
2012,07,29,04,38,12.20
2012,07,29,04,39,12.20
2012,07,29,04,40,12.20
2012,07,29,04,41,12.20
2012,07,29,04,42,12.20
2012,07,29,04,43,12.20
2012,07,29,04,44,12.20
2012,07,29,04,45,12.20
2012,07,29,04,46,12.10
2012,07,29,04,47,12.10
2012,07,29,04,48,12.10
2012,07,29,04,49,12.10
2012,07,29,04,50,12.10
2012,07,29,04,51,12.10
2012,07,29,04,52,12.10
2012,07,29,04,53,12.10
2012,07,29,04,54,12.10
2012,07,29,04,55,12.10
2012,07,29,04,56,12.10
2012,07,29,04,57,12.10
2012,07,29,04,58,12.10
2012,07,29,04,59,12.10
2012,07,29,05,00,12.20
2012,07,29,05,01,12.20
2012,07,29,05,02,12.20
2012,07,29,05,03,12.20
2012,07,29,05,04,12.20
2012,07,29,05,05,12.20
2012,07,29,05,06,12.20
2012,07,29,05,07,12.20
2012,07,29,05,08,12.20
2012,07,29,05,09,12.20
2012,07,29,05,10,12.20
2012,07,29,05,11,12.20
2012,07,29,05,12,12.20
2012,07,29,05,13,12.20
2012,07,29,05,14,12.20
2012,07,29,05,15,12.20
2012,07,29,05,16,12.20
2012,07,29,05,17,12.20
2012,07,29,05,18,12.20
2012,07,29,05,19,12.20
2012,07,29,05,20,12.20
2012,07,29,05,21,12.20
2012,07,29,05,22,12.20
2012,07,29,05,23,12.20
2012,07,29,05,24,12.20
2012,07,29,05,25,12.20
2012,07,29,05,26,12.20
2012,07,29,05,27,12.20
2012,07,29,05,28,12.20
2012,07,29,05,29,12.20
2012,07,29,05,30,12.20
2012,07,29,05,31,12.20
2012,07,29,05,32,12.20
2012,07,29,05,33,12.20
2012,07,29,05,34,12.20
2012,07,29,05,35,12.20
2012,07,29,05,36,12.10
2012,07,29,05,37,12.10
2012,07,29,05,38,12.10
2012,07,29,05,39,12.10
2012,07,29,05,40,12.10
2012,07,29,05,41,12.10
2012,07,29,05,42,12.10
2012,07,29,05,43,12.10
2012,07,29,05,44,12.10
2012,07,29,05,45,12.10
2012,07,29,05,46,12.10
2012,07,29,05,47,12.10
2012,07,29,05,48,12.10
2012,07,29,05,49,12.10
2012,07,29,05,50,12.10
2012,07,29,05,51,12.10
2012,07,29,05,52,12.10
2012,07,29,05,53,12.10
2012,07,29,05,54,12.00
2012,07,29,05,55,12.00
2012,07,29,05,56,12.00
2012,07,29,05,57,12.00
2012,07,29,05,58,12.00
2012,07,29,05,59,12.00
2012,07,29,06,00,11.90
2012,07,29,06,01,11.90
2012,07,29,06,02,11.90
2012,07,29,06,03,11.90
2012,07,29,06,04,11.90
2012,07,29,06,05,11.90
2012,07,29,06,06,11.90
2012,07,29,06,07,11.90
2012,07,29,06,08,11.90
2012,07,29,06,09,11.90
2012,07,29,06,10,11.90
2012,07,29,06,11,11.90
2012,07,29,06,12,11.90
2012,07,29,06,13,11.90
2012,07,29,06,14,11.90
2012,07,29,06,15,11.90
2012,07,29,06,16,11.90
2012,07,29,06,17,11.90
2012,07,29,06,18,11.90
2012,07,29,06,19,11.90
2012,07,29,06,20,11.90
2012,07,29,06,21,11.90
2012,07,29,06,22,11.90
2012,07,29,06,23,11.90
2012,07,29,06,24,11.90
2012,07,29,06,25,11.90
2012,07,29,06,26,11.90
2012,07,29,06,27,11.90
2012,07,29,06,28,11.90
2012,07,29,06,29,11.90
2012,07,29,06,30,11.90
2012,07,29,06,31,11.90
2012,07,29,06,32,11.90
2012,07,29,06,33,11.90
2012,07,29,06,34,11.90
2012,07,29,06,35,11.90
2012,07,29,06,36,11.90
2012,07,29,06,37,11.90
2012,07,29,06,38,11.90
2012,07,29,06,39,11.90
2012,07,29,06,40,11.90
2012,07,29,06,41,11.90
2012,07,29,06,42,11.90
2012,07,29,06,43,11.90
2012,07,29,06,44,12.00
2012,07,29,06,45,11.90
2012,07,29,06,46,11.90
2012,07,29,06,47,11.90
2012,07,29,06,48,11.90
2012,07,29,06,49,11.90
2012,07,29,06,50,11.90
2012,07,29,06,51,11.90
2012,07,29,06,52,11.90
2012,07,29,06,53,11.90
2012,07,29,06,54,11.90
2012,07,29,06,55,11.90
2012,07,29,06,56,11.90
2012,07,29,06,57,11.90
2012,07,29,06,58,11.90
2012,07,29,06,59,11.90
2012,07,29,07,00,11.90
2012,07,29,07,01,11.90
2012,07,29,07,02,11.90
2012,07,29,07,03,11.90
2012,07,29,07,04,11.90
2012,07,29,07,05,11.90
2012,07,29,07,06,11.90
2012,07,29,07,07,11.90
2012,07,29,07,08,11.90
2012,07,29,07,09,11.90
2012,07,29,07,10,11.90
2012,07,29,07,11,11.90
2012,07,29,07,12,11.90
2012,07,29,07,13,12.00
2012,07,29,07,14,12.00
2012,07,29,07,15,12.00
2012,07,29,07,16,12.00
2012,07,29,07,17,12.00
2012,07,29,07,18,12.00
2012,07,29,07,19,12.00
2012,07,29,07,20,12.00
2012,07,29,07,21,12.00
2012,07,29,07,22,12.00
2012,07,29,07,23,12.00
2012,07,29,07,24,12.00
2012,07,29,07,25,12.00
2012,07,29,07,26,12.00
2012,07,29,07,27,12.00
2012,07,29,07,28,12.00
2012,07,29,07,29,12.00
2012,07,29,07,30,12.00
2012,07,29,07,31,12.00
2012,07,29,07,32,12.10
2012,07,29,07,33,12.10
2012,07,29,07,34,12.10
2012,07,29,07,35,12.10
2012,07,29,07,36,12.10
2012,07,29,07,37,12.10
2012,07,29,07,38,12.10
2012,07,29,07,39,12.10
2012,07,29,07,40,12.10
2012,07,29,07,41,12.10
2012,07,29,07,42,12.10
2012,07,29,07,43,12.10
2012,07,29,07,44,12.10
2012,07,29,07,45,12.10
2012,07,29,07,46,12.20
2012,07,29,07,47,12.20
2012,07,29,07,48,12.20
2012,07,29,07,49,12.20
2012,07,29,07,50,12.20
2012,07,29,07,51,12.20
2012,07,29,07,52,12.20
2012,07,29,07,53,12.20
2012,07,29,07,54,12.20
2012,07,29,07,55,12.20
2012,07,29,07,56,12.30
2012,07,29,07,57,12.30
2012,07,29,07,58,12.30
2012,07,29,07,59,12.30
2012,07,29,08,00,12.30
2012,07,29,08,01,12.30
2012,07,29,08,02,12.30
2012,07,29,08,03,12.40
2012,07,29,08,04,12.40
2012,07,29,08,05,12.40
2012,07,29,08,06,12.40
2012,07,29,08,07,12.40
2012,07,29,08,08,12.40
2012,07,29,08,09,12.50
2012,07,29,08,10,12.50
2012,07,29,08,11,12.50
2012,07,29,08,12,12.50
2012,07,29,08,13,12.60
2012,07,29,08,14,12.60
2012,07,29,08,15,12.60
2012,07,29,08,16,12.60
2012,07,29,08,17,12.60
2012,07,29,08,18,12.60
2012,07,29,08,19,12.70
2012,07,29,08,20,12.70
2012,07,29,08,21,12.70
2012,07,29,08,22,12.70
2012,07,29,08,23,12.70
2012,07,29,08,24,12.80
2012,07,29,08,25,12.80
2012,07,29,08,26,12.80
2012,07,29,08,27,12.80
2012,07,29,08,28,12.80
2012,07,29,08,29,12.80
2012,07,29,08,30,12.90
2012,07,29,08,31,12.90
2012,07,29,08,32,12.90
2012,07,29,08,33,12.90
2012,07,29,08,34,13.00
2012,07,29,08,35,13.00
2012,07,29,08,36,13.00
2012,07,29,08,37,13.10
2012,07,29,08,38,13.10
2012,07,29,08,39,13.10
2012,07,29,08,40,13.10
2012,07,29,08,41,13.20
2012,07,29,08,42,13.20
2012,07,29,08,43,13.20
2012,07,29,08,44,13.30
2012,07,29,08,45,13.30
2012,07,29,08,46,13.30
2012,07,29,08,47,13.40
2012,07,29,08,48,13.40
2012,07,29,08,49,13.50
2012,07,29,08,50,13.50
2012,07,29,08,51,13.60
2012,07,29,08,52,13.60
2012,07,29,08,53,13.60
2012,07,29,08,54,13.60
2012,07,29,08,55,13.70
2012,07,29,08,56,13.70
2012,07,29,08,57,13.70
2012,07,29,08,58,13.70
2012,07,29,08,59,13.70
2012,07,29,09,00,13.80
2012,07,29,09,01,13.80
2012,07,29,09,02,13.80
2012,07,29,09,03,13.80
2012,07,29,09,04,13.80
2012,07,29,09,05,13.80
2012,07,29,09,06,13.90
2012,07,29,09,07,13.90
2012,07,29,09,08,13.90
2012,07,29,09,09,13.90
2012,07,29,09,10,14.00
2012,07,29,09,11,14.00
2012,07,29,09,12,14.10
2012,07,29,09,13,14.10
2012,07,29,09,14,14.20
2012,07,29,09,15,14.20
2012,07,29,09,16,14.30
2012,07,29,09,17,14.30
2012,07,29,09,18,14.40
2012,07,29,09,19,14.50
2012,07,29,09,20,14.60
2012,07,29,09,21,14.70
2012,07,29,09,22,14.80
2012,07,29,09,23,15.00
2012,07,29,09,24,15.00
2012,07,29,09,25,15.10
2012,07,29,09,26,15.30
2012,07,29,09,27,15.40
2012,07,29,09,28,15.60
2012,07,29,09,29,15.70
2012,07,29,09,30,15.90
2012,07,29,09,31,16.00
2012,07,29,09,32,16.10
2012,07,29,09,33,16.20
2012,07,29,09,34,16.30
2012,07,29,09,35,16.30
2012,07,29,09,36,16.40
2012,07,29,09,37,16.50
2012,07,29,09,38,16.60
2012,07,29,09,39,16.70
2012,07,29,09,40,16.70
2012,07,29,09,41,16.80
2012,07,29,09,42,16.90
2012,07,29,09,43,17.00
2012,07,29,09,44,17.00
2012,07,29,09,45,17.10
2012,07,29,09,46,17.20
2012,07,29,09,47,17.20
2012,07,29,09,48,17.30
2012,07,29,09,49,17.30
2012,07,29,09,50,17.40
2012,07,29,09,51,17.40
2012,07,29,09,52,17.50
2012,07,29,09,53,17.50
2012,07,29,09,54,17.60
2012,07,29,09,55,17.60
2012,07,29,09,56,17.70
2012,07,29,09,57,17.70
2012,07,29,09,58,17.70
2012,07,29,09,59,17.70
2012,07,29,10,00,17.80
2012,07,29,10,01,17.80
2012,07,29,10,02,17.80
2012,07,29,10,03,17.80
2012,07,29,10,04,17.80
2012,07,29,10,05,17.80
2012,07,29,10,06,17.90
2012,07,29,10,07,17.90
2012,07,29,10,08,17.90
2012,07,29,10,09,17.90
2012,07,29,10,10,18.00
2012,07,29,10,11,18.00
2012,07,29,10,12,18.00
2012,07,29,10,13,18.00
2012,07,29,10,14,18.10
2012,07,29,10,15,18.10
2012,07,29,10,16,18.10
2012,07,29,10,17,18.10
2012,07,29,10,18,18.10
2012,07,29,10,19,18.10
2012,07,29,10,20,18.10
2012,07,29,10,21,18.10
2012,07,29,10,22,18.10
2012,07,29,10,23,18.10
2012,07,29,10,24,18.10
2012,07,29,10,25,18.10
2012,07,29,10,26,18.20
2012,07,29,10,27,18.20
2012,07,29,10,28,18.20
2012,07,29,10,29,18.20
2012,07,29,10,30,18.20
2012,07,29,10,31,18.20
2012,07,29,10,32,18.20
2012,07,29,10,33,18.30
2012,07,29,10,34,18.30
2012,07,29,10,35,18.30
2012,07,29,10,36,18.30
2012,07,29,10,37,18.30
2012,07,29,10,38,18.40
2012,07,29,10,39,18.40
2012,07,29,10,40,18.50
2012,07,29,10,41,18.60
2012,07,29,10,42,18.60
2012,07,29,10,43,18.60
2012,07,29,10,44,18.70
2012,07,29,10,45,18.80
2012,07,29,10,46,18.80
2012,07,29,10,47,18.90
2012,07,29,10,48,18.90
2012,07,29,10,49,19.00
2012,07,29,10,50,19.10
2012,07,29,10,51,19.10
2012,07,29,10,52,19.20
2012,07,29,10,53,19.20
2012,07,29,10,54,19.20
2012,07,29,10,55,19.20
2012,07,29,10,56,19.20
2012,07,29,10,57,19.20
2012,07,29,10,58,19.20
2012,07,29,10,59,19.20
2012,07,29,11,00,19.30
2012,07,29,11,01,19.30
2012,07,29,11,02,19.30
2012,07,29,11,03,19.30
2012,07,29,11,04,19.30
2012,07,29,11,05,19.30
2012,07,29,11,06,19.30
2012,07,29,11,07,19.30
2012,07,29,11,08,19.30
2012,07,29,11,09,19.30
2012,07,29,11,10,19.40
2012,07,29,11,11,19.40
2012,07,29,11,12,19.50
2012,07,29,11,13,19.50
2012,07,29,11,14,19.60
2012,07,29,11,15,19.60
2012,07,29,11,16,19.60
2012,07,29,11,17,19.60
2012,07,29,11,18,19.60
2012,07,29,11,19,19.70
2012,07,29,11,20,19.70
2012,07,29,11,21,19.80
2012,07,29,11,22,19.80
2012,07,29,11,23,19.90
2012,07,29,11,24,19.90
2012,07,29,11,25,20.00
2012,07,29,11,26,20.00
2012,07,29,11,27,20.00
2012,07,29,11,28,20.00
2012,07,29,11,29,20.00
2012,07,29,11,30,20.00
2012,07,29,11,31,20.00
2012,07,29,11,32,20.10
2012,07,29,11,33,20.10
2012,07,29,11,34,20.20
2012,07,29,11,35,20.20
2012,07,29,11,36,20.20
2012,07,29,11,37,20.30
2012,07,29,11,38,20.30
2012,07,29,11,39,20.40
2012,07,29,11,40,20.40
2012,07,29,11,41,20.50
2012,07,29,11,42,20.60
2012,07,29,11,43,20.60
2012,07,29,11,44,20.60
2012,07,29,11,45,20.70
2012,07,29,11,46,20.80
2012,07,29,11,47,20.80
2012,07,29,11,48,20.90
2012,07,29,11,49,20.90
2012,07,29,11,50,21.00
2012,07,29,11,51,21.10
2012,07,29,11,52,21.20
2012,07,29,11,53,21.30
2012,07,29,11,54,21.40
2012,07,29,11,55,21.40
2012,07,29,11,56,21.40
2012,07,29,11,57,21.40
2012,07,29,11,58,21.50
2012,07,29,11,59,21.50
2012,07,29,12,00,21.60
2012,07,29,12,01,21.60
2012,07,29,12,02,21.60
2012,07,29,12,03,21.60
2012,07,29,12,04,21.70
2012,07,29,12,05,21.80
2012,07,29,12,06,21.80
2012,07,29,12,07,21.90
2012,07,29,12,08,21.90
2012,07,29,12,09,22.00
2012,07,29,12,10,22.10
2012,07,29,12,11,22.10
2012,07,29,12,12,22.20
2012,07,29,12,13,22.20
2012,07,29,12,14,22.20
2012,07,29,12,15,22.20
2012,07,29,12,16,22.20
2012,07,29,12,17,22.20
2012,07,29,12,18,22.20
2012,07,29,12,19,22.20
2012,07,29,12,20,22.20
2012,07,29,12,21,22.10
2012,07,29,12,22,22.10
2012,07,29,12,23,22.10
2012,07,29,12,24,22.10
2012,07,29,12,25,22.10
2012,07,29,12,26,22.10
2012,07,29,12,27,22.10
2012,07,29,12,28,22.10
2012,07,29,12,29,22.10
2012,07,29,12,30,22.20
2012,07,29,12,31,22.20
2012,07,29,12,32,22.20
2012,07,29,12,33,22.20
2012,07,29,12,34,22.30
2012,07,29,12,35,22.30
2012,07,29,12,36,22.30
2012,07,29,12,37,22.30
2012,07,29,12,38,22.40
2012,07,29,12,39,22.40
2012,07,29,12,40,22.40
2012,07,29,12,41,22.40
2012,07,29,12,42,22.40
2012,07,29,12,43,22.50
2012,07,29,12,44,22.50
2012,07,29,12,45,22.40
2012,07,29,12,46,22.40
2012,07,29,12,47,22.40
2012,07,29,12,48,22.40
2012,07,29,12,49,22.40
2012,07,29,12,50,22.40
2012,07,29,12,51,22.40
2012,07,29,12,52,22.40
2012,07,29,12,53,22.40
2012,07,29,12,54,22.40
2012,07,29,12,55,22.30
2012,07,29,12,56,22.30
2012,07,29,12,57,22.30
2012,07,29,12,58,22.30
2012,07,29,12,59,22.30
2012,07,29,13,00,22.30
2012,07,29,13,01,22.30
2012,07,29,13,02,22.30
2012,07,29,13,03,22.30
2012,07,29,13,04,22.30
2012,07,29,13,05,22.30
2012,07,29,13,06,22.30
2012,07,29,13,07,22.30
2012,07,29,13,08,22.40
2012,07,29,13,09,22.40
2012,07,29,13,10,22.40
2012,07,29,13,11,22.40
2012,07,29,13,12,22.30
2012,07,29,13,13,22.30
2012,07,29,13,14,22.40
2012,07,29,13,15,22.40
2012,07,29,13,16,22.40
2012,07,29,13,17,22.50
2012,07,29,13,18,22.50
2012,07,29,13,19,22.50
2012,07,29,13,20,22.60
2012,07,29,13,21,22.60
2012,07,29,13,22,22.60
2012,07,29,13,23,22.60
2012,07,29,13,24,22.60
2012,07,29,13,25,22.60
2012,07,29,13,26,22.60
2012,07,29,13,27,22.60
2012,07,29,13,28,22.60
2012,07,29,13,29,22.60
2012,07,29,13,30,22.50
2012,07,29,13,31,22.50
2012,07,29,13,32,22.50
2012,07,29,13,33,22.50
2012,07,29,13,34,22.50
2012,07,29,13,35,22.50
2012,07,29,13,36,22.60
2012,07,29,13,37,22.60
2012,07,29,13,38,22.60
2012,07,29,13,39,22.60
2012,07,29,13,40,22.70
2012,07,29,13,41,22.70
2012,07,29,13,42,22.70
2012,07,29,13,43,22.80
2012,07,29,13,44,22.80
2012,07,29,13,45,22.80
2012,07,29,13,46,22.90
2012,07,29,13,47,22.90
2012,07,29,13,48,22.90
2012,07,29,13,49,22.90
2012,07,29,13,50,22.90
2012,07,29,13,51,22.80
2012,07,29,13,52,22.80
2012,07,29,13,53,22.80
2012,07,29,13,54,22.80
2012,07,29,13,55,22.80
2012,07,29,13,56,22.80
2012,07,29,13,57,22.80
2012,07,29,13,58,22.80
2012,07,29,13,59,22.80
2012,07,29,14,00,22.90
2012,07,29,14,01,22.90
2012,07,29,14,02,22.90
2012,07,29,14,03,22.90
2012,07,29,14,04,22.90
2012,07,29,14,05,23.00
2012,07,29,14,06,23.00
2012,07,29,14,07,23.10
2012,07,29,14,08,23.10
2012,07,29,14,09,23.20
2012,07,29,14,10,23.30
2012,07,29,14,11,23.30
2012,07,29,14,12,23.40
2012,07,29,14,13,23.40
2012,07,29,14,14,23.50
2012,07,29,14,15,23.60
2012,07,29,14,16,23.70
2012,07,29,14,17,23.80
2012,07,29,14,18,23.80
2012,07,29,14,19,23.90
2012,07,29,14,20,24.00
2012,07,29,14,21,24.00
2012,07,29,14,22,24.10
2012,07,29,14,23,24.10
2012,07,29,14,24,24.10
2012,07,29,14,25,24.10
2012,07,29,14,26,24.20
2012,07,29,14,27,24.20
2012,07,29,14,28,24.20
2012,07,29,14,29,24.30
2012,07,29,14,30,24.30
2012,07,29,14,31,24.30
2012,07,29,14,32,24.40
2012,07,29,14,33,24.40
2012,07,29,14,34,24.40
2012,07,29,14,35,24.40
2012,07,29,14,36,24.40
2012,07,29,14,37,24.40
2012,07,29,14,38,24.50
2012,07,29,14,39,24.50
2012,07,29,14,40,24.50
2012,07,29,14,41,24.60
2012,07,29,14,42,24.60
2012,07,29,14,43,24.50
2012,07,29,14,44,24.50
2012,07,29,14,45,24.50
2012,07,29,14,46,24.60
2012,07,29,14,47,24.50
2012,07,29,14,48,24.50
2012,07,29,14,49,24.40
2012,07,29,14,50,24.40
2012,07,29,14,51,24.40
2012,07,29,14,52,24.40
2012,07,29,14,53,24.50
2012,07,29,14,54,24.60
2012,07,29,14,55,24.60
2012,07,29,14,56,24.70
2012,07,29,14,57,24.70
2012,07,29,14,58,24.70
2012,07,29,14,59,24.70
2012,07,29,15,00,24.70
2012,07,29,15,01,24.80
2012,07,29,15,02,24.80
2012,07,29,15,03,24.90
2012,07,29,15,04,25.00
2012,07,29,15,05,25.00
2012,07,29,15,06,25.10
2012,07,29,15,07,25.20
2012,07,29,15,08,25.20
2012,07,29,15,09,25.20
2012,07,29,15,10,25.30
2012,07,29,15,11,25.30
2012,07,29,15,12,25.30
2012,07,29,15,13,25.40
2012,07,29,15,14,25.40
2012,07,29,15,15,25.50
2012,07,29,15,16,25.50
2012,07,29,15,17,25.60
2012,07,29,15,18,25.70
2012,07,29,15,19,25.80
2012,07,29,15,20,25.80
2012,07,29,15,21,25.70
2012,07,29,15,22,25.70
2012,07,29,15,23,25.60
2012,07,29,15,24,25.40
2012,07,29,15,25,25.30
2012,07,29,15,26,25.20
2012,07,29,15,27,25.20
2012,07,29,15,28,25.20
2012,07,29,15,29,25.20
2012,07,29,15,30,25.30
2012,07,29,15,31,25.30
2012,07,29,15,32,25.40
2012,07,29,15,33,25.50
2012,07,29,15,34,25.50
2012,07,29,15,35,25.60
2012,07,29,15,36,25.60
2012,07,29,15,37,25.60
2012,07,29,15,38,25.60
2012,07,29,15,39,25.60
2012,07,29,15,40,25.60
2012,07,29,15,41,25.60
2012,07,29,15,42,25.70
2012,07,29,15,43,25.60
2012,07,29,15,44,25.50
2012,07,29,15,45,25.40
2012,07,29,15,46,25.40
2012,07,29,15,47,25.40
2012,07,29,15,48,25.40
2012,07,29,15,49,25.40
2012,07,29,15,50,25.50
2012,07,29,15,51,25.50
2012,07,29,15,52,25.60
2012,07,29,15,53,25.70
2012,07,29,15,54,25.70
2012,07,29,15,55,25.70
2012,07,29,15,56,25.70
2012,07,29,15,57,25.70
2012,07,29,15,58,25.70
2012,07,29,15,59,25.60
2012,07,29,16,00,25.60
2012,07,29,16,01,25.60
2012,07,29,16,02,25.60
2012,07,29,16,03,25.60
2012,07,29,16,04,25.70
2012,07,29,16,05,25.80
2012,07,29,16,06,25.80
2012,07,29,16,07,25.80
2012,07,29,16,08,25.90
2012,07,29,16,09,25.90
2012,07,29,16,10,25.90
2012,07,29,16,11,25.90
2012,07,29,16,12,25.90
2012,07,29,16,13,25.90
2012,07,29,16,14,25.90
2012,07,29,16,15,25.80
2012,07,29,16,16,25.80
2012,07,29,16,17,25.70
2012,07,29,16,18,25.50
2012,07,29,16,19,25.40
2012,07,29,16,20,25.30
2012,07,29,16,21,25.20
2012,07,29,16,22,25.10
2012,07,29,16,23,24.90
2012,07,29,16,24,24.90
2012,07,29,16,25,24.80
2012,07,29,16,26,24.90
2012,07,29,16,27,25.00
2012,07,29,16,28,25.10
2012,07,29,16,29,25.20
2012,07,29,16,30,25.40
2012,07,29,16,31,25.50
2012,07,29,16,32,25.60
2012,07,29,16,33,25.70
2012,07,29,16,34,25.80
2012,07,29,16,35,25.90
2012,07,29,16,36,25.90
2012,07,29,16,37,26.00
2012,07,29,16,38,26.00
2012,07,29,16,39,26.10
2012,07,29,16,40,26.10
2012,07,29,16,41,26.20
2012,07,29,16,42,26.20
2012,07,29,16,43,26.20
2012,07,29,16,44,26.10
2012,07,29,16,45,26.10
2012,07,29,16,46,26.10
2012,07,29,16,47,26.10
2012,07,29,16,48,26.00
2012,07,29,16,49,25.90
2012,07,29,16,50,25.90
2012,07,29,16,51,25.80
2012,07,29,16,52,25.80
2012,07,29,16,53,25.70
2012,07,29,16,54,25.60
2012,07,29,16,55,25.50
2012,07,29,16,56,25.40
2012,07,29,16,57,25.40
2012,07,29,16,58,25.30
2012,07,29,16,59,25.30
2012,07,29,17,00,25.20
2012,07,29,17,01,25.20
2012,07,29,17,02,25.10
2012,07,29,17,03,25.10
2012,07,29,17,04,25.00
2012,07,29,17,05,24.90
2012,07,29,17,06,24.80
2012,07,29,17,07,24.70
2012,07,29,17,08,24.60
2012,07,29,17,09,24.50
2012,07,29,17,10,24.40
2012,07,29,17,11,24.40
2012,07,29,17,12,24.40
2012,07,29,17,13,24.40
2012,07,29,17,14,24.40
2012,07,29,17,15,24.40
2012,07,29,17,16,24.40
2012,07,29,17,17,24.50
2012,07,29,17,18,24.50
2012,07,29,17,19,24.50